Location: Aulus
(42.7909°N, 1.3399°E)
Time: 22:06:49
(UTC+00:00)

Cosmos 2058 Rocket - Pass Details

Date: 19 May 2025
Orbit: 604 x 634 km, 82.5° (Epoch: 11 June)

Event Time Altitude Azimuth Distance (km) Brightness Sun altitude
Exits shadow 20:36:34 - 185° (S) 2,334 5.6 -12.9°
Reaches altitude 10° 20:37:22 10° 185° (S) 2,010 5.3 -13.0°
Maximum altitude 20:41:50 85° 99° (E) 640 3.0 -13.6°
Drops below altitude 10° 20:46:19 10° 9° (N) 2,015 6.2 -14.2°
Sets 20:48:33 0° 9° (N) 2,922 7.1 -14.5°
